Time,TemperatureF,DewpointF,PressureIn,WindDirection,WindDirectionDegrees,WindSpeedMPH,WindSpeedGustMPH,Humidity,HourlyPrecipIn,Conditions,Clouds,dailyrainin,SoftwareType,DateUTC
2013-01-20 00:03:00,30.0,13.0,-100.00,North,0,9.0,11.0,47,-99.99,,,-99.99,,2013-01-20 05:03:00,
2013-01-20 00:12:00,30.0,13.0,-100.00,NNW,340,6.0,12.0,46,-99.99,,,-99.99,,2013-01-20 05:12:00,
2013-01-20 00:22:00,31.0,13.0,-100.00,NW,305,1.0,6.0,46,-99.99,,,-99.99,,2013-01-20 05:22:00,
2013-01-20 00:32:00,30.0,12.0,-100.00,WNW,300,4.0,4.0,46,-99.99,,,-99.99,,2013-01-20 05:32:00,
2013-01-20 00:42:00,28.0,11.0,-100.00,NNW,340,3.0,7.0,47,-99.99,,,-99.99,,2013-01-20 05:42:00,
2013-01-20 00:53:00,26.0,9.0,-100.00,NNW,340,7.0,11.0,48,-99.99,,,-99.99,,2013-01-20 05:53:00,
2013-01-20 01:02:00,25.0,10.0,-100.00,West,280,9.0,9.0,52,-99.99,,,-99.99,,2013-01-20 06:02:00,
2013-01-20 01:12:00,24.0,9.0,-100.00,NW,325,7.0,9.0,52,-99.99,,,-99.99,,2013-01-20 06:12:00,
2013-01-20 01:22:00,27.0,11.0,-100.00,WNW,290,6.0,9.0,51,-99.99,,,-99.99,,2013-01-20 06:22:00,
2013-01-20 01:33:00,28.0,11.0,-100.00,NW,320,7.0,12.0,48,-99.99,,,-99.99,,2013-01-20 06:33:00,
2013-01-20 01:42:00,26.0,10.0,-100.00,WNW,295,4.0,7.0,49,-99.99,,,-99.99,,2013-01-20 06:42:00,
2013-01-20 01:52:00,26.0,10.0,-100.00,NW,310,4.0,7.0,48,-99.99,,,-99.99,,2013-01-20 06:52:00,
2013-01-20 02:02:00,26.0,10.0,-100.00,NNW,340,2.0,4.0,48,-99.99,,,-99.99,,2013-01-20 07:02:00,
2013-01-20 02:12:00,26.0,10.0,-100.00,NNE,25,5.0,6.0,49,-99.99,,,-99.99,,2013-01-20 07:12:00,
2013-01-20 02:22:00,26.0,10.0,-100.00,NNE,25,5.0,6.0,50,-99.99,,,-99.99,,2013-01-20 07:22:00,
2013-01-20 02:32:00,26.0,10.0,-100.00,NNE,25,4.0,7.0,51,-99.99,,,-99.99,,2013-01-20 07:32:00,
2013-01-20 02:42:00,26.0,10.0,-100.00,NE,45,4.0,6.0,51,-99.99,,,-99.99,,2013-01-20 07:42:00,
2013-01-20 02:52:00,23.0,9.0,-100.00,East,90,1.0,3.0,54,-99.99,,,-99.99,,2013-01-20 07:52:00,
2013-01-20 03:02:00,24.0,10.0,-100.00,NE,40,1.0,2.0,55,-99.99,,,-99.99,,2013-01-20 08:02:00,
2013-01-20 03:12:00,23.0,10.0,-100.00,East,95,1.0,6.0,57,-99.99,,,-99.99,,2013-01-20 08:12:00,
2013-01-20 03:22:00,22.0,9.0,-100.00,South,180,6.0,6.0,58,-99.99,,,-99.99,,2013-01-20 08:22:00,
2013-01-20 03:32:00,19.0,7.0,-100.00,SSW,205,9.0,10.0,59,-99.99,,,-99.99,,2013-01-20 08:32:00,
2013-01-20 03:42:00,19.0,7.0,-100.00,SSW,200,11.0,11.0,60,-99.99,,,-99.99,,2013-01-20 08:42:00,
2013-01-20 03:52:00,19.0,8.0,-100.00,South,190,11.0,12.0,62,-99.99,,,-99.99,,2013-01-20 08:52:00,
2013-01-20 04:02:00,20.0,10.0,-100.00,SSW,195,10.0,14.0,63,-99.99,,,-99.99,,2013-01-20 09:02:00,
2013-01-20 04:12:00,20.0,10.0,-100.00,SSW,195,10.0,11.0,63,-99.99,,,-99.99,,2013-01-20 09:12:00,
2013-01-20 04:22:00,19.0,10.0,-100.00,South,180,7.0,11.0,65,-99.99,,,-99.99,,2013-01-20 09:22:00,
2013-01-20 04:33:00,19.0,10.0,-100.00,South,185,10.0,12.0,65,-99.99,,,-99.99,,2013-01-20 09:33:00,
2013-01-20 04:42:00,19.0,9.0,-100.00,SSW,195,11.0,13.0,66,-99.99,,,-99.99,,2013-01-20 09:42:00,
2013-01-20 04:52:00,18.0,9.0,-100.00,South,180,8.0,11.0,67,-99.99,,,-99.99,,2013-01-20 09:52:00,
2013-01-20 05:02:00,18.0,10.0,-100.00,SSW,200,8.0,12.0,69,-99.99,,,-99.99,,2013-01-20 10:02:00,
2013-01-20 05:12:00,18.0,10.0,-100.00,SSW,205,7.0,11.0,71,-99.99,,,-99.99,,2013-01-20 10:12:00,
2013-01-20 05:22:00,17.0,10.0,-100.00,SW,220,8.0,9.0,72,-99.99,,,-99.99,,2013-01-20 10:22:00,
2013-01-20 05:32:00,17.0,10.0,-100.00,SSW,200,9.0,10.0,74,-99.99,,,-99.99,,2013-01-20 10:32:00,
2013-01-20 05:42:00,16.0,10.0,-100.00,SSW,200,9.0,10.0,74,-99.99,,,-99.99,,2013-01-20 10:42:00,
2013-01-20 05:52:00,16.0,10.0,-100.00,South,190,7.0,9.0,75,-99.99,,,-99.99,,2013-01-20 10:52:00,
2013-01-20 06:02:00,17.0,11.0,-100.00,South,180,9.0,9.0,75,-99.99,,,-99.99,,2013-01-20 11:02:00,
2013-01-20 06:12:00,18.0,12.0,-100.00,SSW,195,5.0,9.0,75,-99.99,,,-99.99,,2013-01-20 11:12:00,
2013-01-20 06:22:00,18.0,11.0,-100.00,South,180,9.0,9.0,75,-99.99,,,-99.99,,2013-01-20 11:22:00,
2013-01-20 06:32:00,17.0,11.0,-100.00,SSW,205,9.0,9.0,76,-99.99,,,-99.99,,2013-01-20 11:32:00,
2013-01-20 06:42:00,17.0,11.0,-100.00,SSW,200,7.0,9.0,76,-99.99,,,-99.99,,2013-01-20 11:42:00,
2013-01-20 06:53:00,17.0,11.0,-100.00,South,185,7.0,10.0,76,-99.99,,,-99.99,,2013-01-20 11:53:00,
2013-01-20 07:03:00,18.0,12.0,-100.00,SSW,195,9.0,10.0,76,-99.99,,,-99.99,,2013-01-20 12:03:00,
2013-01-20 07:12:00,19.0,13.0,-100.00,SSE,155,11.0,12.0,75,-99.99,,,-99.99,,2013-01-20 12:12:00,
2013-01-20 07:22:00,19.0,12.0,-100.00,SSE,160,6.0,12.0,75,-99.99,,,-99.99,,2013-01-20 12:22:00,
2013-01-20 07:33:00,19.0,12.0,-100.00,SSE,160,10.0,11.0,74,-99.99,,,-99.99,,2013-01-20 12:33:00,
2013-01-20 07:43:00,19.0,12.0,-100.00,SSE,160,7.0,11.0,73,-99.99,,,-99.99,,2013-01-20 12:43:00,
2013-01-20 07:52:00,19.0,12.0,-100.00,SSE,160,7.0,8.0,73,-99.99,,,-99.99,,2013-01-20 12:52:00,
2013-01-20 08:02:00,19.0,12.0,-100.00,SSE,165,5.0,6.0,73,-99.99,,,-99.99,,2013-01-20 13:02:00,
2013-01-20 08:12:00,18.0,11.0,-100.00,SSE,155,6.0,7.0,74,-99.99,,,-99.99,,2013-01-20 13:12:00,
2013-01-20 08:23:00,17.0,10.0,-100.00,SSE,150,4.0,7.0,75,-99.99,,,-99.99,,2013-01-20 13:23:00,
2013-01-20 08:33:00,16.0,10.0,-100.00,South,180,4.0,6.0,76,-99.99,,,-99.99,,2013-01-20 13:33:00,
2013-01-20 08:42:00,16.0,10.0,-100.00,South,175,5.0,6.0,76,-99.99,,,-99.99,,2013-01-20 13:42:00,
2013-01-20 08:52:00,17.0,11.0,-100.00,South,175,1.0,6.0,77,-99.99,,,-99.99,,2013-01-20 13:52:00,
2013-01-20 09:02:00,15.0,9.0,-100.00,SE,145,5.0,6.0,77,-99.99,,,-99.99,,2013-01-20 14:02:00,
2013-01-20 09:12:00,14.0,8.0,-100.00,SE,140,4.0,7.0,75,-99.99,,,-99.99,,2013-01-20 14:12:00,
2013-01-20 09:22:00,13.0,8.0,-100.00,NNW,345,4.0,6.0,77,-99.99,,,-99.99,,2013-01-20 14:22:00,
2013-01-20 09:32:00,14.0,9.0,-100.00,SSE,155,4.0,6.0,80,-99.99,,,-99.99,,2013-01-20 14:32:00,
2013-01-20 09:42:00,14.0,9.0,-100.00,East,85,6.0,7.0,80,-99.99,,,-99.99,,2013-01-20 14:42:00,
2013-01-20 09:52:00,15.0,10.0,-100.00,SE,125,7.0,9.0,80,-99.99,,,-99.99,,2013-01-20 14:52:00,
2013-01-20 10:03:00,19.0,13.0,-100.00,SSE,165,9.0,10.0,77,-99.99,,,-99.99,,2013-01-20 15:03:00,
2013-01-20 10:12:00,20.0,14.0,-100.00,SE,145,4.0,10.0,75,-99.99,,,-99.99,,2013-01-20 15:12:00,
2013-01-20 10:23:00,22.0,15.0,-100.00,ESE,105,2.0,4.0,73,-99.99,,,-99.99,,2013-01-20 15:23:00,
2013-01-20 10:33:00,26.0,18.0,-100.00,South,185,7.0,9.0,69,-99.99,,,-99.99,,2013-01-20 15:33:00,
2013-01-20 10:42:00,29.0,17.0,-100.00,South,190,11.0,12.0,61,-99.99,,,-99.99,,2013-01-20 15:42:00,
2013-01-20 10:52:00,31.0,17.0,-100.00,SSW,200,8.0,12.0,56,-99.99,,,-99.99,,2013-01-20 15:52:00,
2013-01-20 11:02:00,33.0,16.0,-100.00,SSW,210,9.0,12.0,50,-99.99,,,-99.99,,2013-01-20 16:02:00,
2013-01-20 11:12:00,35.0,16.0,-100.00,SSW,210,7.0,9.0,46,-99.99,,,-99.99,,2013-01-20 16:12:00,
2013-01-20 11:23:00,36.0,16.0,-100.00,SSW,210,7.0,10.0,42,-99.99,,,-99.99,,2013-01-20 16:23:00,
2013-01-20 11:33:00,37.0,16.0,-100.00,SW,235,7.0,10.0,41,-99.99,,,-99.99,,2013-01-20 16:33:00,
2013-01-20 11:42:00,38.0,15.0,-100.00,WSW,240,9.0,10.0,38,-99.99,,,-99.99,,2013-01-20 16:42:00,
2013-01-20 11:52:00,41.0,15.0,-100.00,WSW,255,9.0,12.0,33,-99.99,,,-99.99,,2013-01-20 16:52:00,
2013-01-20 12:03:00,43.0,15.0,-100.00,West,280,14.0,17.0,31,-99.99,,,-99.99,,2013-01-20 17:03:00,
2013-01-20 12:12:00,47.0,14.0,-100.00,West,280,20.0,24.0,26,-99.99,,,-99.99,,2013-01-20 17:12:00,
2013-01-20 12:22:00,47.0,12.0,-100.00,West,280,22.0,29.0,24,-99.99,,,-99.99,,2013-01-20 17:22:00,
2013-01-20 12:33:00,47.0,11.0,-100.00,West,280,23.0,29.0,23,-99.99,,,-99.99,,2013-01-20 17:33:00,
2013-01-20 12:42:00,47.0,11.0,-100.00,WNW,290,23.0,30.0,22,-99.99,,,-99.99,,2013-01-20 17:42:00,
2013-01-20 12:52:00,47.0,11.0,-100.00,WNW,300,22.0,28.0,22,-99.99,,,-99.99,,2013-01-20 17:52:00,
2013-01-20 13:02:00,47.0,11.0,-100.00,WNW,290,21.0,29.0,22,-99.99,,,-99.99,,2013-01-20 18:02:00,
2013-01-20 13:12:00,48.0,11.0,-100.00,WNW,290,21.0,28.0,22,-99.99,,,-99.99,,2013-01-20 18:12:00,
2013-01-20 13:23:00,47.0,11.0,-100.00,WNW,290,19.0,26.0,22,-99.99,,,-99.99,,2013-01-20 18:23:00,
2013-01-20 13:33:00,46.0,11.0,-100.00,West,280,22.0,27.0,22,-99.99,,,-99.99,,2013-01-20 18:33:00,
2013-01-20 13:42:00,46.0,11.0,-100.00,West,280,24.0,27.0,22,-99.99,,,-99.99,,2013-01-20 18:42:00,
2013-01-20 13:53:00,46.0,11.0,-100.00,WNW,295,22.0,29.0,22,-99.99,,,-99.99,,2013-01-20 18:53:00,
2013-01-20 14:02:00,46.0,11.0,-100.00,NW,305,22.0,27.0,23,-99.99,,,-99.99,,2013-01-20 19:02:00,
2013-01-20 14:12:00,46.0,11.0,-100.00,WNW,285,20.0,27.0,23,-99.99,,,-99.99,,2013-01-20 19:12:00,
2013-01-20 14:22:00,46.0,11.0,-100.00,WNW,300,19.0,26.0,23,-99.99,,,-99.99,,2013-01-20 19:22:00,
2013-01-20 14:33:00,45.0,10.0,-100.00,NW,305,17.0,25.0,24,-99.99,,,-99.99,,2013-01-20 19:33:00,
2013-01-20 14:42:00,45.0,11.0,-100.00,NW,305,19.0,24.0,24,-99.99,,,-99.99,,2013-01-20 19:42:00,
2013-01-20 14:52:00,46.0,11.0,-100.00,NW,310,15.0,24.0,24,-99.99,,,-99.99,,2013-01-20 19:52:00,
2013-01-20 15:02:00,46.0,11.0,-100.00,NW,310,17.0,23.0,24,-99.99,,,-99.99,,2013-01-20 20:02:00,
2013-01-20 15:12:00,46.0,11.0,-100.00,NW,310,17.0,23.0,24,-99.99,,,-99.99,,2013-01-20 20:12:00,
2013-01-20 15:22:00,45.0,11.0,-100.00,WNW,295,18.0,22.0,24,-99.99,,,-99.99,,2013-01-20 20:22:00,
2013-01-20 15:33:00,45.0,11.0,-100.00,WNW,300,17.0,22.0,24,-99.99,,,-99.99,,2013-01-20 20:33:00,
2013-01-20 15:42:00,45.0,11.0,-100.00,NW,310,13.0,19.0,24,-99.99,,,-99.99,,2013-01-20 20:42:00,
2013-01-20 15:53:00,45.0,11.0,-100.00,WNW,300,12.0,17.0,25,-99.99,,,-99.99,,2013-01-20 20:53:00,
2013-01-20 16:03:00,44.0,11.0,-100.00,NW,320,12.0,19.0,25,-99.99,,,-99.99,,2013-01-20 21:03:00,
2013-01-20 16:13:00,44.0,11.0,-100.00,NW,320,14.0,18.0,26,-99.99,,,-99.99,,2013-01-20 21:13:00,
2013-01-20 16:22:00,43.0,11.0,-100.00,NNW,335,14.0,19.0,26,-99.99,,,-99.99,,2013-01-20 21:22:00,
2013-01-20 16:33:00,44.0,11.0,-100.00,NNW,330,12.0,16.0,26,-99.99,,,-99.99,,2013-01-20 21:33:00,
2013-01-20 16:43:00,44.0,12.0,-100.00,NNW,330,12.0,18.0,26,-99.99,,,-99.99,,2013-01-20 21:43:00,
2013-01-20 16:52:00,43.0,11.0,-100.00,NNW,335,12.0,17.0,27,-99.99,,,-99.99,,2013-01-20 21:52:00,
2013-01-20 17:03:00,42.0,12.0,-100.00,NNW,330,12.0,17.0,27,-99.99,,,-99.99,,2013-01-20 22:03:00,
2013-01-20 17:12:00,42.0,11.0,-100.00,NW,315,12.0,18.0,28,-99.99,,,-99.99,,2013-01-20 22:12:00,
2013-01-20 17:22:00,41.0,11.0,-100.00,NW,320,12.0,16.0,29,-99.99,,,-99.99,,2013-01-20 22:22:00,
2013-01-20 17:33:00,41.0,12.0,-100.00,NNW,335,12.0,16.0,29,-99.99,,,-99.99,,2013-01-20 22:33:00,
2013-01-20 17:43:00,41.0,12.0,-100.00,NNW,330,12.0,16.0,29,-99.99,,,-99.99,,2013-01-20 22:43:00,
2013-01-20 17:52:00,41.0,12.0,-100.00,NNW,335,12.0,14.0,29,-99.99,,,-99.99,,2013-01-20 22:52:00,
2013-01-20 18:03:00,40.0,12.0,-100.00,NNW,330,13.0,14.0,30,-99.99,,,-99.99,,2013-01-20 23:03:00,
2013-01-20 18:12:00,40.0,12.0,-100.00,NW,315,9.0,15.0,30,-99.99,,,-99.99,,2013-01-20 23:12:00,
2013-01-20 18:23:00,40.0,11.0,-100.00,NNW,335,9.0,12.0,30,-99.99,,,-99.99,,2013-01-20 23:23:00,
2013-01-20 18:33:00,39.0,11.0,-100.00,NNW,330,9.0,12.0,30,-99.99,,,-99.99,,2013-01-20 23:33:00,
2013-01-20 18:42:00,38.0,12.0,-100.00,North,0,12.0,14.0,33,-99.99,,,-99.99,,2013-01-20 23:42:00,
2013-01-20 18:52:00,37.0,13.0,-100.00,North,350,7.0,14.0,37,-99.99,,,-99.99,,2013-01-20 23:52:00,
2013-01-20 19:03:00,36.0,13.0,-100.00,North,0,9.0,11.0,38,-99.99,,,-99.99,,2013-01-21 00:03:00,
2013-01-20 19:13:00,34.0,14.0,-100.00,North,0,9.0,13.0,42,-99.99,,,-99.99,,2013-01-21 00:13:00,
2013-01-20 19:22:00,33.0,14.0,-100.00,North,0,7.0,11.0,45,-99.99,,,-99.99,,2013-01-21 00:22:00,
2013-01-20 19:33:00,32.0,13.0,-100.00,North,10,7.0,9.0,45,-99.99,,,-99.99,,2013-01-21 00:33:00,
2013-01-20 19:42:00,31.0,15.0,-100.00,NNE,15,6.0,9.0,49,-99.99,,,-99.99,,2013-01-21 00:42:00,
2013-01-20 19:53:00,30.0,14.0,-100.00,NNE,20,8.0,10.0,51,-99.99,,,-99.99,,2013-01-21 00:53:00,
2013-01-20 20:03:00,29.0,13.0,-100.00,NNE,20,9.0,11.0,50,-99.99,,,-99.99,,2013-01-21 01:03:00,
2013-01-20 20:12:00,28.0,13.0,-100.00,NNE,20,7.0,11.0,53,-99.99,,,-99.99,,2013-01-21 01:12:00,
2013-01-20 20:22:00,28.0,14.0,-100.00,NNE,15,9.0,11.0,54,-99.99,,,-99.99,,2013-01-21 01:22:00,
2013-01-20 20:32:00,27.0,14.0,-100.00,NNE,15,7.0,10.0,56,-99.99,,,-99.99,,2013-01-21 01:32:00,
2013-01-20 20:43:00,27.0,15.0,-100.00,NNE,15,8.0,11.0,59,-99.99,,,-99.99,,2013-01-21 01:43:00,
2013-01-20 20:52:00,26.0,15.0,-100.00,North,10,7.0,10.0,61,-99.99,,,-99.99,,2013-01-21 01:52:00,
2013-01-20 21:03:00,26.0,16.0,-100.00,North,0,6.0,9.0,64,-99.99,,,-99.99,,2013-01-21 02:03:00,
2013-01-20 21:12:00,26.0,16.0,-100.00,North,5,6.0,8.0,66,-99.99,,,-99.99,,2013-01-21 02:12:00,
2013-01-20 21:23:00,24.0,15.0,-100.00,NNE,15,4.0,6.0,68,-99.99,,,-99.99,,2013-01-21 02:23:00,
2013-01-20 21:33:00,22.0,13.0,-100.00,NNW,340,4.0,6.0,68,-99.99,,,-99.99,,2013-01-21 02:33:00,
2013-01-20 21:42:00,23.0,16.0,-100.00,North,10,6.0,8.0,73,-99.99,,,-99.99,,2013-01-21 02:42:00,
2013-01-20 21:52:00,23.0,16.0,-100.00,NNE,25,5.0,7.0,74,-99.99,,,-99.99,,2013-01-21 02:52:00,
2013-01-20 22:03:00,22.0,16.0,-100.00,NNE,15,3.0,6.0,76,-99.99,,,-99.99,,2013-01-21 03:03:00,
2013-01-20 22:12:00,20.0,15.0,-100.00,NNW,345,4.0,5.0,78,-99.99,,,-99.99,,2013-01-21 03:12:00,
2013-01-20 22:23:00,19.0,14.0,-100.00,NNW,340,3.0,4.0,78,-99.99,,,-99.99,,2013-01-21 03:23:00,
2013-01-20 22:33:00,20.0,14.0,-100.00,NNE,15,4.0,6.0,77,-99.99,,,-99.99,,2013-01-21 03:33:00,
2013-01-20 22:43:00,20.0,14.0,-100.00,North,5,4.0,6.0,77,-99.99,,,-99.99,,2013-01-21 03:43:00,
2013-01-20 22:52:00,20.0,15.0,-100.00,NNE,20,2.0,5.0,82,-99.99,,,-99.99,,2013-01-21 03:52:00,
2013-01-20 23:03:00,20.0,16.0,-100.00,NE,50,1.0,4.0,82,-99.99,,,-99.99,,2013-01-21 04:03:00,
2013-01-20 23:12:00,20.0,15.0,-100.00,NNE,15,2.0,4.0,82,-99.99,,,-99.99,,2013-01-21 04:12:00,
2013-01-20 23:23:00,20.0,15.0,-100.00,North,10,4.0,4.0,83,-99.99,,,-99.99,,2013-01-21 04:23:00,
2013-01-20 23:32:00,18.0,14.0,-100.00,NNW,335,4.0,5.0,83,-99.99,,,-99.99,,2013-01-21 04:32:00,
2013-01-20 23:42:00,17.0,14.0,-100.00,NW,325,4.0,4.0,85,-99.99,,,-99.99,,2013-01-21 04:42:00,
2013-01-20 23:52:00,18.0,14.0,-100.00,NW,310,3.0,4.0,85,-99.99,,,-99.99,,2013-01-21 04:52:00,